HS5BOG-13 Weather Reports


time (UTC)temp
C
wind
direction
speed
KPH
gust
KPH
rain 1hr
cm
rain 24hr
cm
rain mn
cm
humidity
%
barometer
mb
20260505092641 30 0.0 0.0 0.00 0.00 0.00 70 989.2
20260505091635 30 0.0 0.0 0.00 0.00 0.00 69 989.4
20260505090630 30 0.0 0.0 0.00 0.00 0.00 69 989.6
20260505085624 30 0.0 0.0 0.00 0.00 0.00 69 989.7
20260505084619 30 0.0 0.0 0.00 0.00 0.00 70 989.9
20260505083613 30 0.0 0.0 0.00 0.00 0.00 73 990.1
20260505082609 30 0.0 0.0 0.00 0.00 0.00 73 990.4
20260505081602 30 0.0 0.0 0.00 0.00 0.00 75 990.6
20260505080556 30 0.0 0.0 0.00 0.00 0.00 76 990.8
20260505075551 30 0.0 0.0 0.00 0.00 0.00 76 991.0
20260505074545 30 0.0 0.0 0.00 0.00 0.00 77 991.3
20260505073539 30 0.0 0.0 0.00 0.00 0.00 77 991.5
20260505072534 30 0.0 0.0 0.00 0.00 0.00 77 991.7
20260505071528 30 0.0 0.0 0.00 0.00 0.00 76 992.0
20260505070523 30 0.0 0.0 0.00 0.00 0.00 78 992.0
20260505065517 29 0.0 0.0 0.00 0.00 0.00 81 992.3
20260505064511 29 0.0 0.0 0.00 0.00 0.00 82 992.5
20260505063505 29 0.0 0.0 0.00 0.00 0.00 82 992.8
20260505062500 29 0.0 0.0 0.00 0.00 0.00 82 993.0
20260505061454 29 0.0 0.0 0.00 0.00 0.00 83 993.4
20260505060449 29 0.0 0.0 0.00 0.00 0.00 83 993.7
20260505055443 29 0.0 0.0 0.00 0.00 0.00 84 994.0
20260505054438 28 0.0 0.0 0.00 0.00 0.00 85 994.3
20260505053432 28 0.0 0.0 0.00 0.00 0.00 85 994.5
20260505052426 28 0.0 0.0 0.00 0.00 0.00 85 994.6
20260505051421 28 0.0 0.0 0.00 0.00 0.00 84 995.0
20260505050415 28 0.0 0.0 0.00 0.00 0.00 86 995.4
20260505041347 28 0.0 0.0 0.00 0.00 0.00 92 995.9
20260505040341 28 0.0 0.0 0.00 0.00 0.00 93 996.0
20260505035336 27 0.0 0.0 0.00 0.00 0.00 96 996.2
20260505034330 27 0.0 0.0 0.00 0.00 0.00 96 996.2
20260505033324 27 0.0 0.0 0.00 0.00 0.00 96 996.2
20260505032319 27 0.0 0.0 0.00 0.00 0.00 96 996.3
20260505031313 27 0.0 0.0 0.00 0.00 0.00 95 996.3
20260505030308 27 0.0 0.0 0.00 0.00 0.00 95 996.5
20260505025304 27 0.0 0.0 0.00 0.00 0.00 95 996.8
20260505024256 27 0.0 0.0 0.00 0.00 0.00 95 996.7
20260505023251 27 0.0 0.0 0.00 0.00 0.00 93 996.8
20260505022245 27 0.0 0.0 0.00 0.00 0.00 93 996.8
20260505021240 27 0.0 0.0 0.00 0.00 0.00 92 996.8
20260505020234 27 0.0 0.0 0.00 0.00 0.00 92 996.8
20260505015228 27 0.0 0.0 0.00 0.00 0.00 94 996.8
20260505014223 27 0.0 0.0 0.00 0.00 0.00 95 996.7
20260505013217 27 0.0 0.0 0.00 0.00 0.00 95 996.6
20260505012212 27 0.0 0.0 0.00 0.00 0.00 95 996.5
20260505011206 27 0.0 0.0 0.00 0.00 0.00 94 996.3
20260505010201 27 0.0 0.0 0.00 0.00 0.00 95 996.2
20260505005155 27 0.0 0.0 0.00 0.00 0.00 94 995.9
20260505004149 27 0.0 0.0 0.00 0.00 0.00 95 995.9
20260505003144 27 0.0 0.0 0.00 0.00 0.00 97 995.6
20260505002138 27 0.0 0.0 0.00 0.00 0.00 99 995.4
20260505001132 26 0.0 0.0 0.00 0.00 0.00 98 995.3
20260505000127 26 0.0 0.0 0.00 0.00 0.00 98 995.2
20260504235121 26 0.0 0.0 0.00 0.00 0.00 97 995.0
20260504234116 26 0.0 0.0 0.00 0.00 0.00 96 994.9
20260504233110 26 0.0 0.0 0.00 0.00 0.00 95 994.7
20260504232105 26 0.0 0.0 0.00 0.00 0.00 95 994.5
20260504231059 26 0.0 0.0 0.00 0.00 0.00 95 994.2
20260504230053 26 0.0 0.0 0.00 0.00 0.00 94 994.3
20260504225048 26 0.0 0.0 0.00 0.00 0.00 95 994.1
20260504224042 26 0.0 0.0 0.00 0.00 0.00 95 994.1
20260504223037 26 0.0 0.0 0.00 0.00 0.00 95 994.0
20260504222031 26 0.0 0.0 0.00 0.00 0.00 93 993.9
20260504221025 26 0.0 0.0 0.00 0.00 0.00 93 993.8
20260504220020 26 0.0 0.0 0.00 0.00 0.00 92 993.6
20260504215014 26 0.0 0.0 0.00 0.00 0.00 92 993.7
20260504214009 26 0.0 0.0 0.00 0.00 0.00 92 993.5
20260504213003 27 0.0 0.0 0.00 0.00 0.00 91 993.1
20260504211642 27 0.0 0.0 0.00 0.00 0.00 91 993.2
20260504210637 27 0.0 0.0 0.00 0.00 0.00 91 993.4
20260504205631 27 0.0 0.0 0.00 0.00 0.00 90 993.5
20260504204626 27 0.0 0.0 0.00 0.00 0.00 90 993.6
20260504203620 27 0.0 0.0 0.00 0.00 0.00 89 993.4
20260504202614 27 0.0 0.0 0.00 0.00 0.00 88 993.4
20260504201609 27 0.0 0.0 0.00 0.00 0.00 89 993.5
20260504200603 27 0.0 0.0 0.00 0.00 0.00 89 993.7
20260504195558 27 0.0 0.0 0.00 0.00 0.00 89 994.0
20260504194552 27 0.0 0.0 0.00 0.00 0.00 90 994.1
20260504193547 27 0.0 0.0 0.00 0.00 0.00 87 994.2
20260504192541 27 0.0 0.0 0.00 0.00 0.00 87 994.5
20260504191536 27 0.0 0.0 0.00 0.00 0.00 86 994.5
20260504190530 27 0.0 0.0 0.00 0.00 0.00 85 994.6
20260504185524 27 0.0 0.0 0.00 0.00 0.00 85 994.7
20260504184519 27 0.0 0.0 0.00 0.00 0.00 84 995.0
20260504183513 27 0.0 0.0 0.00 0.00 0.00 84 995.1
20260504182508 27 0.0 0.0 0.00 0.00 0.00 83 995.1
20260504181502 27 0.0 0.0 0.00 0.00 0.00 84 995.0
20260504180457 27 0.0 0.0 0.00 0.00 0.00 82 995.0
20260504175451 27 0.0 0.0 0.00 0.00 0.00 84 994.9
20260504174445 27 0.0 0.0 0.00 0.00 0.00 84 995.0
20260504173440 27 0.0 0.0 0.00 0.00 0.00 82 994.9
20260504172434 27 0.0 0.0 0.00 0.00 0.00 81 994.6
20260504171429 27 0.0 0.0 0.00 0.00 0.00 81 994.1
20260504170423 27 0.0 0.0 0.00 0.00 0.00 78 994.2
20260504160350 28 0.0 0.0 0.00 0.00 0.00 77 995.1
20260504150932 28 0.0 0.0 0.00 0.00 0.00 69 995.3